When you browse on this site, cookies collect data to enhance your experience and personalize the content and advertising you see.
Visit our Privacy Policy to learn more. By continuing to use the site, you agree to this use of cookies and data.

Hourly Weather Ghadamis

Today, 13 August, Thursday

Time Temperature Precipitation Wind Pressure Humidity
00:00 +35°C° 0 mm 8 mps 731 mmHg 33%
01:00 +34°C° 0 mm 7 mps 731 mmHg 35%
02:00 +33°C° 0 mm 7 mps 731 mmHg 36%
03:00 +33°C° 0 mm 6 mps 731 mmHg 37%
04:00 +32°C° 0 mm 6 mps 731 mmHg 38%
05:00 +32°C° 0 mm 6 mps 731 mmHg 37%
06:00 +32°C° 0 mm 7 mps 731 mmHg 37%
07:00 +32°C° 0 mm 7 mps 732 mmHg 37%
08:00 +34°C° 0 mm 7 mps 732 mmHg 31%
09:00 +38°C° 0 mm 6 mps 732 mmHg 26%
10:00 +41°C° 0 mm 6 mps 732 mmHg 20%
11:00 +43°C° 0 mm 5 mps 732 mmHg 18%
12:00 +45°C° 0 mm 5 mps 731 mmHg 15%
13:00 +47°C° 0 mm 5 mps 731 mmHg 12%
14:00 +47°C° 0 mm 5 mps 731 mmHg 12%
15:00 +48°C° 0 mm 5 mps 730 mmHg 12%
16:00 +48°C° 0 mm 5 mps 730 mmHg 11%
17:00 +46°C° 0 mm 6 mps 730 mmHg 11%
18:00 +45°C° 0 mm 6 mps 730 mmHg 11%
19:00 +43°C° 0 mm 7 mps 730 mmHg 11%
20:00 +41°C° 0 mm 8 mps 730 mmHg 12%
21:00 +39°C° 0 mm 9 mps 731 mmHg 13%
22:00 +38°C° 0 mm 10 mps 731 mmHg 14%
23:00 +37°C° 0 mm 8 mps 731 mmHg 17%

Tomorrow, 14 August, Friday

Time Temperature Precipitation Wind Pressure Humidity
00:00 +35°C° 0 mm 7 mps 731 mmHg 21%
01:00 +34°C° 0 mm 6 mps 731 mmHg 24%
02:00 +33°C° 0 mm 6 mps 731 mmHg 26%
03:00 +32°C° 0 mm 6 mps 731 mmHg 28%
04:00 +30°C° 0 mm 6 mps 731 mmHg 30%
05:00 +30°C° 0 mm 6 mps 732 mmHg 30%
06:00 +30°C° 0 mm 6 mps 732 mmHg 31%
07:00 +29°C° 0 mm 6 mps 732 mmHg 32%
08:00 +33°C° 0 mm 6 mps 732 mmHg 28%
09:00 +36°C° 0 mm 6 mps 733 mmHg 24%
10:00 +39°C° 0 mm 6 mps 733 mmHg 20%
11:00 +41°C° 0 mm 6 mps 732 mmHg 17%
12:00 +42°C° 0 mm 6 mps 732 mmHg 14%
13:00 +45°C° 0 mm 6 mps 731 mmHg 10%
14:00 +45°C° 0 mm 7 mps 731 mmHg 9%
15:00 +45°C° 0 mm 7 mps 730 mmHg 9%
16:00 +46°C° 0 mm 8 mps 730 mmHg 8%
17:00 +44°C° 0 mm 7 mps 730 mmHg 8%
18:00 +41°C° 0 mm 6 mps 730 mmHg 9%
19:00 +38°C° 0 mm 4 mps 730 mmHg 10%
20:00 +37°C° 0 mm 5 mps 730 mmHg 12%
21:00 +36°C° 0 mm 6 mps 731 mmHg 13%
22:00 +35°C° 0 mm 7 mps 732 mmHg 15%
23:00 +34°C° 0 mm 6 mps 731 mmHg 18%

Day after tomorrow, 15 August, Saturday

Time Temperature Precipitation Wind Pressure Humidity
00:00 +33°C° 0 mm 6 mps 731 mmHg 21%
01:00 +32°C° 0 mm 5 mps 731 mmHg 24%
02:00 +30°C° 0 mm 5 mps 731 mmHg 26%
03:00 +29°C° 0 mm 5 mps 731 mmHg 28%
04:00 +29°C° 0 mm 5 mps 731 mmHg 31%
05:00 +28°C° 0 mm 5 mps 731 mmHg 32%
06:00 +28°C° 0 mm 5 mps 732 mmHg 33%
07:00 +28°C° 0 mm 5 mps 732 mmHg 34%
08:00 +32°C° 0 mm 5 mps 732 mmHg 29%
09:00 +34°C° 0 mm 6 mps 732 mmHg 23%
10:00 +38°C° 0 mm 6 mps 733 mmHg 18%
11:00 +40°C° 0 mm 7 mps 732 mmHg 15%
12:00 +43°C° 0 mm 8 mps 732 mmHg 12%
13:00 +45°C° 0 mm 8 mps 732 mmHg 9%
14:00 +45°C° 0 mm 8 mps 731 mmHg 9%
15:00 +45°C° 0 mm 8 mps 730 mmHg 8%
16:00 +46°C° 0 mm 8 mps 730 mmHg 8%
17:00 +44°C° 0 mm 7 mps 730 mmHg 9%
18:00 +42°C° 0 mm 6 mps 730 mmHg 10%
19:00 +40°C° 0 mm 5 mps 730 mmHg 11%
20:00 +39°C° 0 mm 5 mps 730 mmHg 12%
21:00 +36°C° 0 mm 5 mps 731 mmHg 14%
22:00 +35°C° 0 mm 5 mps 731 mmHg 15%
23:00 +34°C° 0 mm 5 mps 731 mmHg 16%

16 August, Sunday

Time Temperature Precipitation Wind Pressure Humidity
00:00 +34°C° 0 mm 5 mps 731 mmHg 18%
01:00 +33°C° 0 mm 5 mps 731 mmHg 19%
02:00 +32°C° 0 mm 4 mps 730 mmHg 21%
03:00 +32°C° 0 mm 4 mps 730 mmHg 23%
04:00 +30°C° 0 mm 4 mps 730 mmHg 24%
05:00 +30°C° 0 mm 4 mps 730 mmHg 25%
06:00 +32°C° 0 mm 4 mps 731 mmHg 25%
07:00 +31°C° 0 mm 3 mps 731 mmHg 26%
08:00 +35°C° 0 mm 4 mps 732 mmHg 22%
09:00 +38°C° 0 mm 4 mps 732 mmHg 18%
10:00 +42°C° 0 mm 4 mps 732 mmHg 14%
11:00 +43°C° 0 mm 4 mps 732 mmHg 13%
12:00 +45°C° 0 mm 5 mps 732 mmHg 11%
13:00 +46°C° 0 mm 5 mps 731 mmHg 10%
14:00 +47°C° 0 mm 5 mps 731 mmHg 9%
15:00 +47°C° 0 mm 5 mps 730 mmHg 9%
16:00 +47°C° 0 mm 5 mps 730 mmHg 8%
17:00 +45°C° 0 mm 5 mps 730 mmHg 9%
18:00 +43°C° 0 mm 4 mps 729 mmHg 10%
19:00 +40°C° 0 mm 3 mps 729 mmHg 11%
20:00 +40°C° 0 mm 4 mps 730 mmHg 13%
21:00 +38°C° 0 mm 4 mps 730 mmHg 14%
22:00 +37°C° 0 mm 4 mps 731 mmHg 15%
23:00 +36°C° 0 mm 4 mps 731 mmHg 16%

17 August, Monday

Time Temperature Precipitation Wind Pressure Humidity
00:00 +35°C° 0 mm 4 mps 731 mmHg 17%
01:00 +35°C° 0 mm 5 mps 731 mmHg 18%
02:00 +34°C° 0 mm 5 mps 731 mmHg 19%
03:00 +34°C° 0 mm 5 mps 730 mmHg 19%
04:00 +33°C° 0 mm 5 mps 730 mmHg 20%
05:00 +33°C° 0 mm 6 mps 731 mmHg 21%
06:00 +33°C° 0 mm 6 mps 731 mmHg 21%
07:00 +33°C° 0 mm 6 mps 731 mmHg 21%
08:00 +36°C° 0 mm 6 mps 732 mmHg 19%
09:00 +39°C° 0 mm 6 mps 732 mmHg 17%
10:00 +42°C° 0 mm 6 mps 732 mmHg 15%
11:00 +43°C° 0 mm 5 mps 732 mmHg 14%
12:00 +44°C° 0 mm 4 mps 732 mmHg 12%
13:00 +45°C° 0 mm 3 mps 731 mmHg 11%
14:00 +45°C° 0 mm 3 mps 731 mmHg 10%
15:00 +46°C° 0 mm 3 mps 730 mmHg 9%
16:00 +46°C° 0 mm 2 mps 730 mmHg 9%
17:00 +43°C° 0 mm 2 mps 730 mmHg 10%
18:00 +42°C° 0 mm 2 mps 730 mmHg 11%
19:00 +40°C° 0 mm 2 mps 730 mmHg 12%
20:00 +39°C° 0 mm 3 mps 730 mmHg 12%
21:00 +40°C° 0 mm 4 mps 731 mmHg 13%
22:00 +38°C° 0 mm 4 mps 731 mmHg 14%
23:00 +37°C° 0 mm 5 mps 731 mmHg 15%

18 August, Tuesday

Time Temperature Precipitation Wind Pressure Humidity
00:00 +38°C° 0 mm 6 mps 731 mmHg 16%
01:00 +36°C° 0 mm 6 mps 731 mmHg 18%
02:00 +35°C° 0 mm 6 mps 731 mmHg 20%
03:00 +34°C° 0 mm 5 mps 731 mmHg 22%
04:00 +33°C° 0 mm 4 mps 731 mmHg 24%
05:00 +33°C° 0 mm 4 mps 731 mmHg 24%
06:00 +33°C° 0 mm 4 mps 731 mmHg 24%
07:00 +31°C° 0 mm 3 mps 732 mmHg 25%
08:00 +35°C° 0 mm 3 mps 732 mmHg 22%
09:00 +38°C° 0 mm 4 mps 732 mmHg 19%
10:00 +41°C° 0 mm 4 mps 733 mmHg 16%
11:00 +43°C° 0 mm 4 mps 732 mmHg 14%
12:00 +45°C° 0 mm 5 mps 732 mmHg 12%
13:00 +47°C° 0 mm 5 mps 731 mmHg 9%
14:00 +47°C° 0 mm 5 mps 731 mmHg 9%
15:00 +47°C° 0 mm 5 mps 730 mmHg 9%
16:00 +48°C° 0 mm 5 mps 730 mmHg 9%
17:00 +45°C° 0 mm 4 mps 730 mmHg 10%
18:00 +42°C° 0 mm 3 mps 730 mmHg 11%
19:00 +39°C° 0 mm 2 mps 730 mmHg 12%
20:00 +39°C° 0 mm 2 mps 730 mmHg 13%
21:00 +38°C° 0 mm 3 mps 730 mmHg 13%
22:00 +38°C° 0 mm 3 mps 731 mmHg 13%
23:00 +37°C° 0 mm 3 mps 731 mmHg 14%
Show more